Location: New Plymouth
(39.0670°S, 174.0830°E)
Time: 21:55:03
(UTC+13:00)

Cosmos 1606 - Pass Details

Date: 24 January 2019
Orbit: 504 x 529 km, 82.5° (Epoch: 17 October)

Event Time Altitude Azimuth Distance (km) Brightness Sun altitude
Exits shadow 22:04:19 11° 100° (E) 1,719 5.0 -13.6°
Drops below altitude 10° 22:05:17 10° 114° (ESE) 1,801 5.2 -13.7°
Enters shadow 23:07:48 -58° 351° (N) 11,369 9.5 -22.2°
